User: anonymous   Login
Location: Unspecified
(0.0000°N, 0.0000°E)
Time: 17:44:26
(UTC+01:00)
Language:

Cosmos 1703 - Orbit

View from above orbital plane
View from above orbital plane
View from above satellite
View from above satellite

Ground track
Ground track

The orbit data is extracted from the following two-line orbital elements,

1 16262U 85108A   15063.01639224  .00004917  00000-0  31988-3 0  9994
2 16262 082.4978 349.5495 0011591 298.0811 061.9244 15.07720533592760
Epoch (UTC): 04 March 2015 00:23:36
Eccentricity: 0.0011591
inclination: 82.4978°
perigee height: 535 km
apogee height: 551 km
right ascension of ascending node: 349.5495°
argument of perigee: 298.0811°
revolutions per day: 15.07720533
mean anomaly at epoch: 61.9244°
orbit number at epoch: 59276

The dashed part of the orbit path shows where the satellite is in the earth's shadow,  

DLR